Regional Weather Roundup
Issued by NWS Sterling, VA

Home | Current Version | Previous Version | Text Only | Print | Product List | Glossary On
Versions: 1 2 3 4 5 6 7 8 9 10 11 12 13 14 15 16 17 18 19 20 21 22 23 24 25 26 27 28 29 30 31 32 33 34 35 36 37 38 39 40 41 42 43 44 45 46 47 48
000
ASUS41 KLWX 311910
RWRLWX

REGIONAL WEATHER ROUNDUP
NATIONAL WEATHER SERVICE BALTIMORE MD/WASHINGTON DC
300 PM EDT FRI JUL 31 2015

Note: "FAIR" indicates few or no clouds below 12,000 feet
with no significant weather and/or obstructions to visibility.
 TC=TEMPERATURE CELSIUS

 * =Non NWS site. Station does not report precipitation (e.g. rain,
    snow, etc.), thunder, or fog.

DCZ001-MDZ009-015-VAZ040>042-051-053>054-312000-
WASHINGTON METRO

CITY           SKY/WX    TMP DP  RH WIND       PRES   REMARKS
WASHINGTON NAT MOSUNNY   90  59  35 VRB6      29.91F
DULLES         MOSUNNY   86  57  37 CALM      29.93F
ANDREWS AFB    MOSUNNY   89  58  35 W9        29.90F
FT BELVOIR     MOSUNNY   88  61  39 W6        29.91F
QUANTICO       MOSUNNY   89  54  31 W6        29.89F
COLLEGE PARK*  MOSUNNY   88  55  33 W3        29.90F
LEESBURG*      PTSUNNY   90  63  40 SW9       29.94F HX  90
MANASSAS*      MOSUNNY   86  55  35 CALM      29.93F
GAITHERSBURG*  SUNNY     86  59  39 NW8       29.96F

$$

MDZ006>007-011-014-312000-
BALTIMORE METRO

CITY           SKY/WX    TMP DP  RH WIND       PRES   REMARKS
BWI AIRPORT    MOSUNNY   89  57  33 N10       29.90F
MD SCIENCE CTR   N/A     88  57  34 MISG      29.89F
MARTIN STATE   MOSUNNY   88  61  40 NW8       29.91F
ANNAPOLIS      SUNNY     87  54  32 N7        29.89F
FORT MEADE*    MOSUNNY   86  59  39 NW8       29.92F

$$

MDZ012-015-019>023-312000-
MARYLAND EASTERN SHORE

CITY           SKY/WX    TMP DP  RH WIND       PRES   REMARKS
OCEAN CITY     SUNNY     88  55  32 NE10      29.88F
SALISBURY      SUNNY     88  60  38 NW8       29.89F
BAY BRIDGE AP*   N/A     86  55  35 N3        29.89F
CAMBRIDGE*     SUNNY     86  54  32 W7        29.90F

$$

MDZ017>025-312000-
SOUTHERN MARYLAND

CITY           SKY/WX    TMP DP  RH WIND       PRES   REMARKS
PATUXENT RIVER MOSUNNY   87  58  37 NW8       29.90F
ST INIGOES     PTSUNNY   87  64  46 VRB6      29.90F
LEONARDTOWN*   SUNNY     86  54  32 CALM      29.92F

$$

MDZ003>005-312000-
NORTH CENTRAL MARYLAND

CITY           SKY/WX    TMP DP  RH WIND       PRES   REMARKS
FREDERICK*     MOSUNNY   88  63  42 SW6       29.94F
HAGERSTOWN APT MOSUNNY   86  51  29 SW3       29.93S
WESTMINSTER*   MOSUNNY   88  54  31 W7        29.94S

$$

MDZ501>502-312000-
WESTERN MARYLAND

CITY           SKY/WX    TMP DP  RH WIND       PRES   REMARKS
OAKLAND*       MOSUNNY   73  64  73 W7        30.07F
CUMBERLAND*    MOSUNNY   84  52  32 W7        29.99S

$$

VAZ025>031-312000-
SHENANDOAH VALLEY

CITY           SKY/WX    TMP DP  RH WIND       PRES   REMARKS
WINCHESTER*    PTSUNNY   90  55  31 W3        29.95F
FRONT ROYAL*   FAIR      82  57  42 CALM      29.95F
LURAY*         FAIR      88  55  33 CALM      29.96F
NEW MARKET*    FAIR      84  62  48 S5        29.95F
STAUNTON*      MOSUNNY   88  55  32 S3        30.00F
WAYNESBORO*    FAIR      82  57  42 SW3       30.00F

$$

WVZ021-048>050-054>055-312000-
EASTERN WEST VIRGINIA PANHANDLE

CITY           SKY/WX    TMP DP  RH WIND       PRES   REMARKS
MARTINSBURG    MOSUNNY   86  58  38 MISG      29.94F
PETERSBURG*    MOSUNNY  N/A N/A N/A W6        29.97F

$$

VAZ036>039-050-312000-
CENTRAL FOOTHILLS

CITY           SKY/WX    TMP DP  RH WIND       PRES   REMARKS
CHARLOTTESVILL MOSUNNY   85  60  42 CALM      29.96F
CULPEPER*      SUNNY     85  59  42 NW5       29.95F
ORANGE*        SUNNY     86  57  37 W5        29.96F
GORDONSVILLE*  FAIR      84  61  45 CALM      29.95F
WARRENTON*     FAIR      88  63  43 CALM      29.94F

$$

VAZ055>057-312000-
NORTH AND CENTRAL PIEDMONT

CITY           SKY/WX    TMP DP  RH WIND       PRES   REMARKS
FREDERICKSBRG* SUNNY     89  60  38 W6        29.91F
STAFFORD*      PTSUNNY   85  58  39 W6        29.97F

$$

NCZ024-NYZ072-PAZ021-071-VAZ022-071-312000-
OTHER REGIONAL OBSERVATIONS

CITY           SKY/WX    TMP DP  RH WIND       PRES   REMARKS
NEW YORK CITY  SUNNY     89  54  30 VRB6      29.86F
PHILADELPHIA   MOSUNNY   89  54  30 NW12G18   29.87F
PITTSBURGH     MOSUNNY   84  54  35 W10       29.94F
ROANOKE        MOSUNNY   87  55  33 N9        30.02F
RICHMOND       MOSUNNY   90  61  37 N7        29.92F HX  90
RALEIGH        MOSUNNY   89  63  41 NE7       29.95F HX  90

$$

ANZ530>537-312000-
MARINE OBSERVATIONS

STATION/POSITION TIME  TEMP    WIND        PRES
                       AIR SEA DIR/SP/G
                 (UTC) (F)     (DEG/KT/KT) (MB)
THOMAS PT LIGHT  NOT AVBL
BALT KEY BRIDGE  1800   85     300/  7/  8 1012.6F
COVE POINT       1800   82     110/  2/  3 1013.9F
LEWISETTA        1800   84 83  340/  4/  5 1012.9F
SOLOMONS ISLAND  1800      83                N/A
PINEY POINT      1800          310/  7/  9   N/A

$$



USA.gov is the U.S. government's official web portal to all federal, state and local government web resources and services.